Time,TemperatureF,DewpointF,PressureIn,WindDirection,WindDirectionDegrees,WindSpeedMPH,WindSpeedGustMPH,Humidity,HourlyPrecipIn,Conditions,Clouds,dailyrainin,SoftwareType,DateUTC
2013-08-10 00:00:00,68.9,68.0,30.09,East,99,0.0,0.0,97,0.00,,SKC,0.00,VWS V12.07,2013-08-10 05:00:00,
2013-08-10 00:07:00,68.9,68.0,30.09,East,99,0.0,0.0,97,0.00,,SKC,0.00,VWS V12.07,2013-08-10 05:07:00,
2013-08-10 00:14:00,68.5,67.6,30.10,East,99,0.0,0.0,97,0.00,,SKC,0.00,VWS V12.07,2013-08-10 05:14:00,
2013-08-10 00:20:00,68.3,67.4,30.10,East,99,0.0,0.0,97,0.00,,SKC,0.00,VWS V12.07,2013-08-10 05:20:00,
2013-08-10 00:27:00,68.2,67.6,30.10,East,99,0.0,0.0,98,0.00,,SKC,0.00,VWS V12.07,2013-08-10 05:27:00,
2013-08-10 00:34:00,68.2,67.6,30.10,East,99,0.0,0.0,98,0.00,,SKC,0.00,VWS V12.07,2013-08-10 05:34:00,
2013-08-10 00:40:00,68.2,67.6,30.10,East,99,0.0,0.0,98,0.00,,SKC,0.00,VWS V12.07,2013-08-10 05:40:00,
2013-08-10 00:47:00,68.2,67.6,30.11,East,99,0.0,0.0,98,0.00,,SKC,0.00,VWS V12.07,2013-08-10 05:47:00,
2013-08-10 00:54:00,68.1,67.5,30.11,East,99,0.0,0.0,98,0.00,,SKC,0.00,VWS V12.07,2013-08-10 05:54:00,
2013-08-10 01:00:00,68.1,67.5,30.11,East,99,0.0,0.0,98,0.00,,SKC,0.00,VWS V12.07,2013-08-10 06:00:00,
2013-08-10 01:07:00,68.2,67.6,30.11,East,99,0.0,0.0,98,0.00,,SKC,0.00,VWS V12.07,2013-08-10 06:07:00,
2013-08-10 01:14:00,68.1,67.2,30.11,East,99,0.0,0.0,97,0.00,,SKC,0.00,VWS V12.07,2013-08-10 06:14:00,
2013-08-10 01:20:00,68.1,67.2,30.11,East,99,0.0,0.0,97,0.00,,SKC,0.00,VWS V12.07,2013-08-10 06:20:00,
2013-08-10 01:27:00,68.0,67.1,30.11,East,99,0.0,0.0,97,0.00,,SKC,0.00,VWS V12.07,2013-08-10 06:27:00,
2013-08-10 01:34:00,67.7,66.8,30.11,East,99,0.0,0.0,97,0.00,,SKC,0.00,VWS V12.07,2013-08-10 06:34:00,
2013-08-10 01:40:00,67.6,66.7,30.10,East,99,0.0,0.0,97,0.00,,SKC,0.00,VWS V12.07,2013-08-10 06:40:00,
2013-08-10 01:47:00,67.6,66.7,30.11,East,99,0.0,0.0,97,0.00,,SKC,0.00,VWS V12.07,2013-08-10 06:47:00,
2013-08-10 01:54:00,67.5,66.6,30.10,East,99,0.0,0.0,97,0.00,,SKC,0.00,VWS V12.07,2013-08-10 06:54:00,
2013-08-10 02:00:00,67.5,66.6,30.10,East,99,0.0,0.0,97,0.00,,SKC,0.00,VWS V12.07,2013-08-10 07:00:00,
2013-08-10 02:07:00,67.4,66.5,30.10,East,99,0.0,0.0,97,0.00,,SKC,0.00,VWS V12.07,2013-08-10 07:07:00,
2013-08-10 02:14:00,67.3,66.4,30.10,East,99,0.0,0.0,97,0.00,,SKC,0.00,VWS V12.07,2013-08-10 07:14:00,
2013-08-10 02:19:00,67.3,66.4,30.10,ENE,77,0.0,0.0,97,0.00,,SKC,0.00,VWS V12.07,2013-08-10 07:19:00,
2013-08-10 02:27:00,67.3,66.4,30.10,NE,36,1.0,2.0,97,0.00,,SKC,0.00,VWS V12.07,2013-08-10 07:27:00,
2013-08-10 02:34:00,67.3,66.4,30.11,NNE,15,0.0,2.0,97,0.00,,SKC,0.00,VWS V12.07,2013-08-10 07:34:00,
2013-08-10 02:40:00,67.4,66.5,30.11,ENE,75,0.0,2.0,97,0.00,,SKC,0.00,VWS V12.07,2013-08-10 07:40:00,
2013-08-10 02:46:00,67.5,66.6,30.11,East,81,0.0,2.0,97,0.00,,SKC,0.00,VWS V12.07,2013-08-10 07:46:00,
2013-08-10 02:54:00,67.2,66.0,30.11,East,80,0.0,2.0,96,0.00,,SKC,0.00,VWS V12.07,2013-08-10 07:54:00,
2013-08-10 02:59:00,67.1,66.2,30.11,ENE,77,0.0,2.0,97,0.00,,SKC,0.00,VWS V12.07,2013-08-10 07:59:00,
2013-08-10 03:07:00,67.1,66.2,30.11,NNE,25,0.0,0.0,97,0.00,,SKC,0.00,VWS V12.07,2013-08-10 08:07:00,
2013-08-10 03:14:00,67.0,66.1,30.12,NNE,33,0.0,1.0,97,0.00,,SKC,0.00,VWS V12.07,2013-08-10 08:14:00,
2013-08-10 03:19:00,67.2,66.3,30.12,NE,53,2.0,4.0,97,0.00,,SKC,0.00,VWS V12.07,2013-08-10 08:19:00,
2013-08-10 03:27:00,67.5,66.3,30.11,North,352,0.0,4.0,96,0.00,,SKC,0.00,VWS V12.07,2013-08-10 08:27:00,
2013-08-10 03:34:00,67.6,66.1,30.11,NNE,23,1.0,3.0,95,0.00,,SKC,0.00,VWS V12.07,2013-08-10 08:34:00,
2013-08-10 03:40:00,67.7,66.2,30.11,NE,41,0.0,4.0,95,0.00,,SKC,0.00,VWS V12.07,2013-08-10 08:40:00,
2013-08-10 03:47:00,67.8,66.0,30.11,ENE,61,4.0,5.0,94,0.00,,SKC,0.00,VWS V12.07,2013-08-10 08:47:00,
2013-08-10 03:54:00,67.8,65.7,30.11,NNE,19,2.0,5.0,93,0.00,,SKC,0.00,VWS V12.07,2013-08-10 08:54:00,
2013-08-10 04:00:00,67.9,66.1,30.12,NNE,13,2.0,5.0,94,0.00,,SKC,0.00,VWS V12.07,2013-08-10 09:00:00,
2013-08-10 04:07:00,67.8,65.7,30.11,North,1,2.0,3.0,93,0.00,,SKC,0.00,VWS V12.07,2013-08-10 09:07:00,
2013-08-10 04:14:00,67.7,65.6,30.11,ENE,71,0.0,3.0,93,0.00,,SKC,0.00,VWS V12.07,2013-08-10 09:14:00,
2013-08-10 04:19:00,67.7,65.3,30.11,NE,51,0.0,3.0,92,0.00,,SKC,0.00,VWS V12.07,2013-08-10 09:19:00,
2013-08-10 04:25:00,67.6,64.9,30.11,NNW,342,0.0,3.0,91,0.00,,SKC,0.00,VWS V12.07,2013-08-10 09:25:00,
2013-08-10 04:32:00,67.4,64.7,30.12,NE,56,0.0,1.0,91,0.00,,SKC,0.00,VWS V12.07,2013-08-10 09:32:00,
2013-08-10 04:39:00,67.3,64.9,30.12,North,4,0.0,2.0,92,0.00,,SKC,0.00,VWS V12.07,2013-08-10 09:39:00,
2013-08-10 04:44:00,67.2,64.5,30.12,North,4,0.0,2.0,91,0.00,,SKC,0.00,VWS V12.07,2013-08-10 09:44:00,
2013-08-10 04:52:00,67.4,64.4,30.12,ENE,69,0.0,2.0,90,0.00,,SKC,0.00,VWS V12.07,2013-08-10 09:52:00,
2013-08-10 04:58:00,67.4,64.4,30.12,NNE,17,0.0,2.0,90,0.00,,SKC,0.00,VWS V12.07,2013-08-10 09:58:00,
2013-08-10 05:03:00,67.3,64.3,30.12,NNE,30,0.0,2.0,90,0.00,,SKC,0.00,VWS V12.07,2013-08-10 10:03:00,
2013-08-10 05:10:00,67.0,64.0,30.12,NNE,13,0.0,2.0,90,0.00,,SKC,0.00,VWS V12.07,2013-08-10 10:10:00,
2013-08-10 05:16:00,66.9,63.9,30.13,NNE,15,0.0,2.0,90,0.00,,SKC,0.00,VWS V12.07,2013-08-10 10:16:00,
2013-08-10 05:24:00,67.1,64.1,30.13,North,4,0.0,3.0,90,0.00,,SKC,0.00,VWS V12.07,2013-08-10 10:24:00,
2013-08-10 05:30:00,67.1,64.1,30.13,NNE,17,0.0,3.0,90,0.00,,SKC,0.00,VWS V12.07,2013-08-10 10:30:00,
2013-08-10 05:36:00,67.1,63.8,30.13,NNW,342,1.0,3.0,89,0.00,,SKC,0.00,VWS V12.07,2013-08-10 10:36:00,
2013-08-10 05:44:00,67.1,63.4,30.13,North,357,1.0,3.0,88,0.00,,SKC,0.00,VWS V12.07,2013-08-10 10:44:00,
2013-08-10 05:49:00,67.1,63.1,30.13,NNE,14,4.0,4.0,87,0.00,,SKC,0.00,VWS V12.07,2013-08-10 10:49:00,
2013-08-10 05:57:00,67.0,62.7,30.12,NNE,23,1.0,5.0,86,0.00,,SKC,0.00,VWS V12.07,2013-08-10 10:57:00,
2013-08-10 06:04:00,67.0,62.7,30.13,ENE,64,0.0,5.0,86,0.00,,SKC,0.00,VWS V12.07,2013-08-10 11:04:00,
2013-08-10 06:10:00,66.9,62.6,30.13,NNE,32,0.0,5.0,86,0.00,,SKC,0.00,VWS V12.07,2013-08-10 11:10:00,
2013-08-10 06:17:00,66.7,62.4,30.13,NE,41,2.0,5.0,86,0.00,,SKC,0.00,VWS V12.07,2013-08-10 11:17:00,
2013-08-10 06:24:00,66.5,62.2,30.13,NE,56,1.0,5.0,86,0.00,,SKC,0.00,VWS V12.07,2013-08-10 11:24:00,
2013-08-10 06:30:00,66.3,62.0,30.13,NNE,20,0.0,5.0,86,0.00,,SKC,0.00,VWS V12.07,2013-08-10 11:30:00,
2013-08-10 06:37:00,66.2,61.9,30.13,NNE,17,0.0,2.0,86,0.00,,SKC,0.00,VWS V12.07,2013-08-10 11:37:00,
2013-08-10 06:44:00,66.1,62.1,30.14,NE,53,2.0,4.0,87,0.00,,SKC,0.00,VWS V12.07,2013-08-10 11:44:00,
2013-08-10 06:50:00,66.1,62.1,30.14,ENE,58,2.0,4.0,87,0.00,,SKC,0.00,VWS V12.07,2013-08-10 11:50:00,
2013-08-10 06:56:00,66.6,62.3,30.14,NE,44,0.0,4.0,86,0.00,,SKC,0.00,VWS V12.07,2013-08-10 11:56:00,
2013-08-10 07:04:00,67.1,62.5,30.14,North,9,0.0,4.0,85,0.00,,SKC,0.00,VWS V12.07,2013-08-10 12:04:00,
2013-08-10 07:09:00,67.4,62.4,30.14,ENE,75,0.0,4.0,84,0.00,,SKC,0.00,VWS V12.07,2013-08-10 12:09:00,
2013-08-10 07:17:00,67.7,62.7,30.14,ENE,61,0.0,4.0,84,0.00,,SKC,0.00,VWS V12.07,2013-08-10 12:17:00,
2013-08-10 07:27:00,68.4,62.7,30.15,NE,56,1.0,4.0,82,0.00,,SKC,0.00,VWS V12.07,2013-08-10 12:27:00,
2013-08-10 07:34:00,69.0,62.6,30.15,North,354,0.0,1.0,80,0.00,,SKC,0.00,VWS V12.07,2013-08-10 12:34:00,
2013-08-10 07:40:00,69.2,62.8,30.15,NE,44,0.0,3.0,80,0.00,,SKC,0.00,VWS V12.07,2013-08-10 12:40:00,
2013-08-10 07:47:00,69.5,63.4,30.15,NNE,12,0.0,3.0,81,0.00,,SKC,0.00,VWS V12.07,2013-08-10 12:47:00,
2013-08-10 07:53:00,69.7,62.9,30.15,NE,46,0.0,3.0,79,0.00,,SKC,0.00,VWS V12.07,2013-08-10 12:53:00,
2013-08-10 08:00:00,70.5,63.3,30.15,North,360,1.0,3.0,78,0.00,,SKC,0.00,VWS V12.07,2013-08-10 13:00:00,
2013-08-10 08:06:00,70.5,63.7,30.15,NE,54,0.0,3.0,79,0.00,,SKC,0.00,VWS V12.07,2013-08-10 13:06:00,
2013-08-10 08:13:00,70.6,63.4,30.15,ENE,61,4.0,5.0,78,0.00,,SKC,0.00,VWS V12.07,2013-08-10 13:13:00,
2013-08-10 08:19:00,70.8,63.6,30.15,NNE,28,1.0,5.0,78,0.00,,SKC,0.00,VWS V12.07,2013-08-10 13:19:00,
2013-08-10 08:27:00,71.0,62.7,30.15,NNE,30,2.0,5.0,75,0.00,,SKC,0.00,VWS V12.07,2013-08-10 13:27:00,
2013-08-10 08:34:00,71.6,63.3,30.15,North,9,0.0,3.0,75,0.00,,SKC,0.00,VWS V12.07,2013-08-10 13:34:00,
2013-08-10 08:40:00,71.9,63.5,30.15,NNE,16,1.0,4.0,75,0.00,,SKC,0.00,VWS V12.07,2013-08-10 13:40:00,
2013-08-10 08:46:00,72.2,63.5,30.15,North,9,0.0,4.0,74,0.00,,SKC,0.00,VWS V12.07,2013-08-10 13:46:00,
2013-08-10 08:53:00,72.7,63.2,30.16,NE,51,1.0,4.0,72,0.00,,SKC,0.00,VWS V12.07,2013-08-10 13:53:00,
2013-08-10 08:59:00,72.9,63.3,30.16,East,79,0.0,5.0,72,0.00,,SKC,0.00,VWS V12.07,2013-08-10 13:59:00,
2013-08-10 09:05:00,73.3,63.7,30.16,NNW,342,2.0,3.0,72,0.00,,SKC,0.00,VWS V12.07,2013-08-10 14:05:00,
2013-08-10 09:11:00,73.4,62.6,30.16,NE,44,1.0,6.0,69,0.00,,SKC,0.00,VWS V12.07,2013-08-10 14:11:00,
2013-08-10 09:19:00,73.8,63.8,30.15,East,84,4.0,6.0,71,0.00,,SKC,0.00,VWS V12.07,2013-08-10 14:19:00,
2013-08-10 09:25:00,74.2,64.2,30.16,NNE,27,1.0,6.0,71,0.00,,SKC,0.00,VWS V12.07,2013-08-10 14:25:00,
2013-08-10 09:32:00,74.4,62.7,30.16,NNW,333,2.0,4.0,67,0.00,,SKC,0.00,VWS V12.07,2013-08-10 14:32:00,
2013-08-10 09:39:00,74.5,62.4,30.16,NNW,347,2.0,4.0,66,0.00,,SKC,0.00,VWS V12.07,2013-08-10 14:39:00,
2013-08-10 09:45:00,74.8,62.7,30.16,North,11,1.0,5.0,66,0.00,,SKC,0.00,VWS V12.07,2013-08-10 14:45:00,
2013-08-10 09:52:00,75.0,62.9,30.16,ESE,103,2.0,6.0,66,0.00,,SKC,0.00,VWS V12.07,2013-08-10 14:52:00,
2013-08-10 09:59:00,75.4,63.3,30.16,WNW,289,2.0,6.0,66,0.00,,SKC,0.00,VWS V12.07,2013-08-10 14:59:00,
2013-08-10 10:09:00,75.7,64.4,30.16,ENE,68,2.0,5.0,68,0.00,,SKC,0.00,VWS V12.07,2013-08-10 15:09:00,
2013-08-10 10:15:00,76.0,63.4,30.16,ESE,122,1.0,5.0,65,0.00,,SKC,0.00,VWS V12.07,2013-08-10 15:15:00,
2013-08-10 10:22:00,76.5,63.4,30.17,NE,51,2.0,6.0,64,0.00,,SKC,0.00,VWS V12.07,2013-08-10 15:22:00,
2013-08-10 10:29:00,76.7,62.7,30.16,NNE,18,3.0,6.0,62,0.00,,SKC,0.00,VWS V12.07,2013-08-10 15:29:00,
2013-08-10 10:35:00,76.8,61.4,30.16,NE,43,5.0,7.0,59,0.00,,SKC,0.00,VWS V12.07,2013-08-10 15:35:00,
2013-08-10 10:42:00,77.2,61.3,30.16,SW,233,0.0,7.0,58,0.00,,SKC,0.00,VWS V12.07,2013-08-10 15:42:00,
2013-08-10 10:49:00,77.7,62.2,30.16,ENE,77,0.0,7.0,59,0.00,,SKC,0.00,VWS V12.07,2013-08-10 15:49:00,
2013-08-10 10:55:00,77.8,60.4,30.16,East,84,5.0,11.0,55,0.00,,SKC,0.00,VWS V12.07,2013-08-10 15:55:00,
2013-08-10 11:02:00,77.8,62.3,30.17,ENE,75,3.0,5.0,59,0.00,,SKC,0.00,VWS V12.07,2013-08-10 16:02:00,
2013-08-10 11:09:00,77.9,61.5,30.17,NW,313,1.0,7.0,57,0.00,,SKC,0.00,VWS V12.07,2013-08-10 16:09:00,
2013-08-10 11:15:00,78.3,61.8,30.16,ENE,61,6.0,7.0,57,0.00,,SKC,0.00,VWS V12.07,2013-08-10 16:15:00,
2013-08-10 11:22:00,78.8,63.3,30.17,NNE,19,2.0,7.0,59,0.00,,SKC,0.00,VWS V12.07,2013-08-10 16:22:00,
2013-08-10 11:29:00,78.6,61.1,30.17,NW,315,2.0,8.0,55,0.00,,SKC,0.00,VWS V12.07,2013-08-10 16:29:00,
2013-08-10 11:35:00,78.8,59.7,30.17,NNW,346,7.0,9.0,52,0.00,,SKC,0.00,VWS V12.07,2013-08-10 16:35:00,
2013-08-10 11:42:00,78.4,58.8,30.17,ENE,77,4.0,9.0,51,0.00,,SKC,0.00,VWS V12.07,2013-08-10 16:42:00,
2013-08-10 11:49:00,78.8,60.8,30.17,WNW,285,1.0,9.0,54,0.00,,SKC,0.00,VWS V12.07,2013-08-10 16:49:00,
2013-08-10 11:55:00,78.7,60.2,30.17,NW,315,3.0,9.0,53,0.00,,SKC,0.00,VWS V12.07,2013-08-10 16:55:00,
2013-08-10 12:02:00,79.1,60.0,30.17,North,356,1.0,5.0,52,0.00,,SKC,0.00,VWS V12.07,2013-08-10 17:02:00,
2013-08-10 12:09:00,79.3,61.2,30.17,NNE,27,7.0,12.0,54,0.00,,SKC,0.00,VWS V12.07,2013-08-10 17:09:00,
2013-08-10 12:15:00,79.1,61.0,30.17,WNW,297,4.0,12.0,54,0.00,,SKC,0.00,VWS V12.07,2013-08-10 17:15:00,
2013-08-10 12:22:00,79.3,58.5,30.17,NNW,336,3.0,12.0,49,0.00,,SKC,0.00,VWS V12.07,2013-08-10 17:22:00,
2013-08-10 12:29:00,79.4,59.2,30.17,East,86,2.0,12.0,50,0.00,,SKC,0.00,VWS V12.07,2013-08-10 17:29:00,
2013-08-10 12:35:00,79.7,58.9,30.17,WSW,256,1.0,10.0,49,0.00,,SKC,0.00,VWS V12.07,2013-08-10 17:35:00,
2013-08-10 12:42:00,79.8,58.4,30.17,ENE,74,3.0,10.0,48,0.00,,SKC,0.00,VWS V12.07,2013-08-10 17:42:00,
2013-08-10 12:49:00,80.2,58.8,30.16,North,349,3.0,10.0,48,0.00,,SKC,0.00,VWS V12.07,2013-08-10 17:49:00,
2013-08-10 12:55:00,80.5,60.2,30.16,NW,305,6.0,10.0,50,0.00,,SKC,0.00,VWS V12.07,2013-08-10 17:55:00,
2013-08-10 13:02:00,80.2,58.2,30.16,North,8,4.0,6.0,47,0.00,,SKC,0.00,VWS V12.07,2013-08-10 18:02:00,
2013-08-10 13:09:00,80.5,60.7,30.16,NE,44,0.0,9.0,51,0.00,,SKC,0.00,VWS V12.07,2013-08-10 18:09:00,
2013-08-10 13:15:00,81.0,60.1,30.15,NE,44,5.0,10.0,49,0.00,,SKC,0.00,VWS V12.07,2013-08-10 18:15:00,
2013-08-10 13:22:00,80.5,59.6,30.15,NE,46,4.0,10.0,49,0.00,,SKC,0.00,VWS V12.07,2013-08-10 18:22:00,
2013-08-10 13:29:00,81.0,59.5,30.15,NNE,13,9.0,14.0,48,0.00,,SKC,0.00,VWS V12.07,2013-08-10 18:29:00,
2013-08-10 13:34:00,80.8,58.7,30.15,ENE,57,5.0,9.0,47,0.00,,SKC,0.00,VWS V12.07,2013-08-10 18:34:00,
2013-08-10 13:40:00,80.6,58.5,30.15,NE,55,7.0,12.0,47,0.00,,SKC,0.00,VWS V12.07,2013-08-10 18:40:00,
2013-08-10 13:47:00,80.8,59.9,30.15,NE,47,1.0,12.0,49,0.00,,SKC,0.00,VWS V12.07,2013-08-10 18:47:00,
2013-08-10 13:54:00,80.9,59.4,30.15,East,81,8.0,12.0,48,0.00,,SKC,0.00,VWS V12.07,2013-08-10 18:54:00,
2013-08-10 14:00:00,81.2,60.2,30.14,North,6,8.0,12.0,49,0.00,,SKC,0.00,VWS V12.07,2013-08-10 19:00:00,
2013-08-10 14:07:00,81.1,59.6,30.14,NW,323,3.0,12.0,48,0.00,,SKC,0.00,VWS V12.07,2013-08-10 19:07:00,
2013-08-10 14:14:00,81.1,60.7,30.14,NE,46,4.0,12.0,50,0.00,,SKC,0.00,VWS V12.07,2013-08-10 19:14:00,
2013-08-10 14:20:00,81.3,59.2,30.14,NNE,30,2.0,12.0,47,0.00,,SKC,0.00,VWS V12.07,2013-08-10 19:20:00,
2013-08-10 14:27:00,81.8,59.6,30.14,NW,321,0.0,12.0,47,0.00,,SKC,0.00,VWS V12.07,2013-08-10 19:27:00,
2013-08-10 14:34:00,81.3,60.9,30.14,North,1,5.0,7.0,50,0.00,,SKC,0.00,VWS V12.07,2013-08-10 19:34:00,
2013-08-10 14:40:00,81.6,60.6,30.14,NW,306,0.0,7.0,49,0.00,,SKC,0.00,VWS V12.07,2013-08-10 19:40:00,
2013-08-10 14:47:00,82.1,61.1,30.14,East,84,1.0,7.0,49,0.00,,SKC,0.00,VWS V12.07,2013-08-10 19:47:00,
2013-08-10 14:54:00,82.0,61.0,30.13,NE,39,4.0,7.0,49,0.00,,SKC,0.00,VWS V12.07,2013-08-10 19:54:00,
2013-08-10 15:00:00,81.6,60.0,30.13,NNW,327,3.0,10.0,48,0.00,,SKC,0.00,VWS V12.07,2013-08-10 20:00:00,
2013-08-10 17:16:00,81.1,60.2,30.11,WNW,300,1.0,9.0,49,0.00,,SKC,0.00,VWS V12.07,2013-08-10 22:16:00,
2013-08-10 17:23:00,81.1,60.2,30.11,North,11,1.0,9.0,49,0.00,,SKC,0.00,VWS V12.07,2013-08-10 22:23:00,
2013-08-10 17:29:00,81.4,61.0,30.11,North,349,2.0,9.0,50,0.00,,SKC,0.00,VWS V12.07,2013-08-10 22:29:00,
2013-08-10 17:36:00,81.2,61.4,30.10,NE,44,3.0,6.0,51,0.00,,SKC,0.00,VWS V12.07,2013-08-10 22:36:00,
2013-08-10 17:42:00,81.1,61.3,30.10,ENE,77,2.0,7.0,51,0.00,,SKC,0.00,VWS V12.07,2013-08-10 22:42:00,
2013-08-10 17:49:00,80.9,61.1,30.10,ENE,64,0.0,8.0,51,0.00,,SKC,0.00,VWS V12.07,2013-08-10 22:49:00,
2013-08-10 17:57:00,80.7,60.3,30.10,East,84,4.0,9.0,50,0.00,,SKC,0.00,VWS V12.07,2013-08-10 22:57:00,
2013-08-10 18:04:00,80.6,60.8,30.10,North,352,2.0,7.0,51,0.00,,SKC,0.00,VWS V12.07,2013-08-10 23:04:00,
2013-08-10 18:10:00,80.5,61.3,30.10,NNE,30,0.0,7.0,52,0.00,,SKC,0.00,VWS V12.07,2013-08-10 23:10:00,
2013-08-10 18:17:00,80.5,61.8,30.09,ENE,77,2.0,9.0,53,0.00,,SKC,0.00,VWS V12.07,2013-08-10 23:17:00,
2013-08-10 18:24:00,80.7,62.0,30.10,North,353,4.0,9.0,53,0.00,,SKC,0.00,VWS V12.07,2013-08-10 23:24:00,
2013-08-10 18:30:00,80.5,60.7,30.10,NNW,333,4.0,9.0,51,0.00,,SKC,0.00,VWS V12.07,2013-08-10 23:30:00,
2013-08-10 18:37:00,80.1,60.9,30.09,NNW,348,1.0,6.0,52,0.00,,SKC,0.00,VWS V12.07,2013-08-10 23:37:00,
2013-08-10 18:44:00,79.8,61.2,30.09,ENE,78,2.0,6.0,53,0.00,,SKC,0.00,VWS V12.07,2013-08-10 23:44:00,
2013-08-10 18:50:00,79.6,61.5,30.09,NNE,30,2.0,6.0,54,0.00,,SKC,0.00,VWS V12.07,2013-08-10 23:50:00,
2013-08-10 18:57:00,79.5,60.9,30.09,NE,39,2.0,7.0,53,0.00,,SKC,0.00,VWS V12.07,2013-08-10 23:57:00,
2013-08-10 19:04:00,79.2,61.1,30.09,ENE,58,3.0,4.0,54,0.00,,SKC,0.00,VWS V12.07,2013-08-11 00:04:00,
2013-08-10 19:10:00,78.7,60.7,30.09,NNE,23,4.0,5.0,54,0.00,,SKC,0.00,VWS V12.07,2013-08-11 00:10:00,
2013-08-10 19:17:00,78.3,61.8,30.09,East,85,0.0,5.0,57,0.00,,SKC,0.00,VWS V12.07,2013-08-11 00:17:00,
2013-08-10 19:24:00,78.3,61.3,30.09,East,81,0.0,5.0,56,0.00,,SKC,0.00,VWS V12.07,2013-08-11 00:24:00,
2013-08-10 19:30:00,78.0,61.5,30.09,SE,126,0.0,5.0,57,0.00,,SKC,0.00,VWS V12.07,2013-08-11 00:30:00,
2013-08-10 19:37:00,77.7,61.3,30.09,East,97,0.0,3.0,57,0.00,,SKC,0.00,VWS V12.07,2013-08-11 00:37:00,
2013-08-10 19:44:00,77.1,61.2,30.10,East,81,0.0,3.0,58,0.00,,SKC,0.00,VWS V12.07,2013-08-11 00:44:00,
2013-08-10 19:50:00,76.4,61.0,30.10,ESE,115,2.0,3.0,59,0.00,,SKC,0.00,VWS V12.07,2013-08-11 00:50:00,
2013-08-10 19:57:00,75.5,60.2,30.10,East,82,0.0,3.0,59,0.00,,SKC,0.00,VWS V12.07,2013-08-11 00:57:00,
2013-08-10 20:04:00,74.7,59.9,30.10,ESE,110,0.0,3.0,60,0.00,,SKC,0.00,VWS V12.07,2013-08-11 01:04:00,
2013-08-10 20:10:00,74.1,59.8,30.11,ESE,104,0.0,3.0,61,0.00,,SKC,0.00,VWS V12.07,2013-08-11 01:10:00,
2013-08-10 20:17:00,73.6,59.8,30.11,ESE,111,0.0,3.0,62,0.00,,SKC,0.00,VWS V12.07,2013-08-11 01:17:00,
2013-08-10 20:24:00,72.8,59.9,30.11,ESE,110,0.0,3.0,64,0.00,,SKC,0.00,VWS V12.07,2013-08-11 01:24:00,
2013-08-10 20:30:00,72.4,59.5,30.12,ESE,105,0.0,3.0,64,0.00,,SKC,0.00,VWS V12.07,2013-08-11 01:30:00,
2013-08-10 20:37:00,72.5,59.6,30.12,ESE,112,0.0,0.0,64,0.00,,SKC,0.00,VWS V12.07,2013-08-11 01:37:00,
2013-08-10 20:44:00,72.3,59.9,30.12,SE,125,0.0,2.0,65,0.00,,SKC,0.00,VWS V12.07,2013-08-11 01:44:00,
2013-08-10 20:50:00,72.2,59.8,30.12,East,99,0.0,2.0,65,0.00,,SKC,0.00,VWS V12.07,2013-08-11 01:50:00,
2013-08-10 20:57:00,72.0,59.6,30.13,ESE,117,0.0,2.0,65,0.00,,SKC,0.00,VWS V12.07,2013-08-11 01:57:00,
2013-08-10 21:04:00,71.9,59.5,30.13,East,88,2.0,2.0,65,0.00,,SKC,0.00,VWS V12.07,2013-08-11 02:04:00,
2013-08-10 21:10:00,71.9,59.5,30.13,East,99,0.0,2.0,65,0.00,,SKC,0.00,VWS V12.07,2013-08-11 02:10:00,
2013-08-10 21:17:00,71.6,59.7,30.13,East,96,0.0,2.0,66,0.00,,SKC,0.00,VWS V12.07,2013-08-11 02:17:00,
2013-08-10 21:24:00,71.4,59.5,30.14,ESE,108,0.0,2.0,66,0.00,,SKC,0.00,VWS V12.07,2013-08-11 02:24:00,
2013-08-10 21:30:00,71.3,59.4,30.14,ESE,103,0.0,2.0,66,0.00,,SKC,0.00,VWS V12.07,2013-08-11 02:30:00,
2013-08-10 21:37:00,70.7,59.2,30.14,ESE,103,0.0,0.0,67,0.00,,SKC,0.00,VWS V12.07,2013-08-11 02:37:00,
2013-08-10 21:44:00,70.3,58.8,30.14,ESE,102,0.0,0.0,67,0.00,,SKC,0.00,VWS V12.07,2013-08-11 02:44:00,
2013-08-10 21:50:00,69.9,58.9,30.14,ESE,102,0.0,0.0,68,0.00,,SKC,0.00,VWS V12.07,2013-08-11 02:50:00,
2013-08-10 21:57:00,69.8,58.8,30.14,ESE,102,0.0,0.0,68,0.00,,SKC,0.00,VWS V12.07,2013-08-11 02:57:00,
2013-08-10 22:04:00,70.1,59.1,30.14,ESE,115,0.0,0.0,68,0.00,,SKC,0.00,VWS V12.07,2013-08-11 03:04:00,
2013-08-10 22:10:00,70.4,58.9,30.14,East,101,0.0,0.0,67,0.00,,SKC,0.00,VWS V12.07,2013-08-11 03:10:00,
2013-08-10 22:17:00,70.4,58.9,30.14,ESE,102,0.0,0.0,67,0.00,,SKC,0.00,VWS V12.07,2013-08-11 03:17:00,
2013-08-10 22:24:00,70.2,59.2,30.14,ESE,113,0.0,0.0,68,0.00,,SKC,0.00,VWS V12.07,2013-08-11 03:24:00,
2013-08-10 22:30:00,70.1,59.1,30.14,East,95,0.0,0.0,68,0.00,,SKC,0.00,VWS V12.07,2013-08-11 03:30:00,
2013-08-10 22:41:00,69.9,58.9,30.14,East,96,0.0,0.0,68,0.00,,SKC,0.00,VWS V12.07,2013-08-11 03:41:00,
2013-08-10 22:47:00,69.6,59.0,30.14,East,96,0.0,0.0,69,0.00,,SKC,0.00,VWS V12.07,2013-08-11 03:47:00,
2013-08-10 22:54:00,69.5,59.3,30.14,ESE,106,0.0,0.0,70,0.00,,SKC,0.00,VWS V12.07,2013-08-11 03:54:00,
2013-08-10 23:00:00,69.5,59.3,30.14,ESE,105,0.0,0.0,70,0.00,,SKC,0.00,VWS V12.07,2013-08-11 04:00:00,
2013-08-10 23:04:00,69.4,59.2,30.14,ESE,111,2.0,2.0,70,0.00,,SKC,0.00,VWS V12.07,2013-08-11 04:04:00,
2013-08-10 23:07:00,69.3,59.1,30.14,East,92,1.0,2.0,70,0.00,,SKC,0.00,VWS V12.07,2013-08-11 04:07:00,
2013-08-10 23:14:00,69.0,59.2,30.14,ESE,122,1.0,3.0,71,0.00,,SKC,0.00,VWS V12.07,2013-08-11 04:14:00,
2013-08-10 23:17:00,68.9,59.1,30.14,SE,125,1.0,3.0,71,0.00,,SKC,0.00,VWS V12.07,2013-08-11 04:17:00,
2013-08-10 23:24:00,68.4,59.0,30.14,SE,126,0.0,3.0,72,0.00,,SKC,0.00,VWS V12.07,2013-08-11 04:24:00,
2013-08-10 23:30:00,67.9,58.9,30.14,SE,125,0.0,3.0,73,0.00,,SKC,0.00,VWS V12.07,2013-08-11 04:30:00,
2013-08-10 23:34:00,67.3,58.7,30.14,SE,126,0.0,0.0,74,0.00,,SKC,0.00,VWS V12.07,2013-08-11 04:34:00,
2013-08-10 23:42:00,65.9,58.9,30.14,SE,125,0.0,0.0,78,0.00,,SKC,0.00,VWS V12.07,2013-08-11 04:42:00,
2013-08-10 23:49:00,64.9,59.3,30.14,SE,126,0.0,0.0,82,0.00,,SKC,0.00,VWS V12.07,2013-08-11 04:49:00,
2013-08-10 23:55:00,64.3,59.7,30.15,SE,126,0.0,0.0,85,0.00,,SKC,0.00,VWS V12.07,2013-08-11 04:55:00,